Time,TemperatureF,DewpointF,PressureIn,WindDirection,WindDirectionDegrees,WindSpeedMPH,WindSpeedGustMPH,Humidity,HourlyPrecipIn,Conditions,Clouds,dailyrainin,SoftwareType,DateUTC
2013-04-15 00:00:00,52.4,36.3,30.00,NE,55,0.0,1.0,54,0.00,,SCT120,0.00,VWS V14.01,2013-04-15 04:00:00,
2013-04-15 00:05:00,52.3,36.2,30.00,NE,55,0.0,1.0,54,0.00,,OVC090,0.00,VWS V14.01,2013-04-15 04:05:00,
2013-04-15 00:10:00,52.3,36.2,30.00,NE,55,0.0,1.0,54,0.00,,OVC090,0.00,VWS V14.01,2013-04-15 04:10:00,
2013-04-15 00:15:00,52.0,38.1,30.00,NE,55,0.0,2.0,59,0.00,,OVC090,0.00,VWS V14.01,2013-04-15 04:15:00,
2013-04-15 00:20:00,51.6,37.3,30.00,NE,55,0.0,0.0,58,0.00,,OVC090,0.00,VWS V14.01,2013-04-15 04:20:00,
2013-04-15 00:25:00,51.4,37.6,30.00,NE,55,0.0,0.0,59,0.00,,OVC090,0.00,VWS V14.01,2013-04-15 04:25:00,
2013-04-15 00:30:00,51.2,36.5,30.00,NE,55,0.0,1.0,57,0.00,,OVC090,0.00,VWS V14.01,2013-04-15 04:30:00,
2013-04-15 00:35:00,51.6,36.4,30.00,ENE,60,1.0,3.0,56,0.00,,OVC090,0.00,VWS V14.01,2013-04-15 04:35:00,
2013-04-15 00:40:00,52.6,36.9,30.00,NNE,25,0.0,0.0,55,0.00,,OVC090,0.00,VWS V14.01,2013-04-15 04:40:00,
2013-04-15 00:45:00,53.0,36.8,30.00,NNE,26,0.0,1.0,54,0.00,,OVC090,0.00,VWS V14.01,2013-04-15 04:45:00,
2013-04-15 00:50:00,53.2,36.5,30.00,NNE,26,0.0,0.0,53,0.00,,OVC090,0.00,VWS V14.01,2013-04-15 04:50:00,
2013-04-15 00:55:00,53.2,36.5,29.99,NNE,26,0.0,1.0,53,0.00,,OVC090,0.00,VWS V14.01,2013-04-15 04:55:00,
2013-04-15 01:00:00,53.2,37.0,29.99,NNE,26,0.0,1.0,54,0.00,,,0.00,VWS V14.01,2013-04-15 05:00:00,
2013-04-15 01:01:00,53.1,36.4,29.99,NNE,26,0.0,0.0,53,0.00,,OVC095,0.00,VWS V14.01,2013-04-15 05:01:00,
2013-04-15 01:06:00,53.2,37.0,29.99,NNE,26,0.0,1.0,54,0.00,,OVC095,0.00,VWS V14.01,2013-04-15 05:06:00,
2013-04-15 01:10:00,53.0,38.6,29.99,East,90,0.0,3.0,58,0.00,,,0.00,VWS V14.01,2013-04-15 05:10:00,
2013-04-15 01:11:00,53.3,36.6,29.99,NNE,26,0.0,0.0,53,0.00,,OVC095,0.00,VWS V14.01,2013-04-15 05:11:00,
2013-04-15 01:16:00,53.3,37.6,29.99,East,90,0.0,3.0,55,0.00,,OVC095,0.00,VWS V14.01,2013-04-15 05:16:00,
2013-04-15 01:20:00,52.6,38.3,29.99,SSE,148,3.0,4.0,58,0.00,,,0.00,VWS V14.01,2013-04-15 05:20:00,
2013-04-15 01:21:00,52.7,37.5,29.99,SE,140,2.0,3.0,56,0.00,,OVC095,0.00,VWS V14.01,2013-04-15 05:21:00,
2013-04-15 01:26:00,52.7,37.9,29.99,SSE,156,2.0,4.0,57,0.00,,OVC095,0.00,VWS V14.01,2013-04-15 05:26:00,
2013-04-15 01:30:00,52.6,38.7,29.99,SE,130,1.0,5.0,59,0.00,,,0.00,VWS V14.01,2013-04-15 05:30:00,
2013-04-15 01:31:00,52.3,38.4,29.99,SE,145,4.0,5.0,59,0.00,,OVC095,0.00,VWS V14.01,2013-04-15 05:31:00,
2013-04-15 01:36:00,52.6,38.7,29.99,South,170,3.0,5.0,59,0.00,,OVC095,0.00,VWS V14.01,2013-04-15 05:36:00,
2013-04-15 01:40:00,53.0,39.5,29.99,SSE,163,4.0,13.0,60,0.00,,,0.00,VWS V14.01,2013-04-15 05:40:00,
2013-04-15 01:41:00,52.8,38.9,29.99,ESE,114,4.0,5.0,59,0.00,,OVC095,0.00,VWS V14.01,2013-04-15 05:41:00,
2013-04-15 01:46:00,53.0,38.6,29.99,ESE,113,3.0,13.0,58,0.00,,OVC095,0.00,VWS V14.01,2013-04-15 05:46:00,
2013-04-15 01:50:00,52.8,38.9,29.99,South,169,0.0,8.0,59,0.00,,,0.00,VWS V14.01,2013-04-15 05:50:00,
2013-04-15 01:51:00,52.8,39.3,29.99,SE,133,4.0,4.0,60,0.00,,OVC095,0.00,VWS V14.01,2013-04-15 05:51:00,
2013-04-15 01:56:00,52.9,39.0,29.99,South,169,0.0,8.0,59,0.00,,OVC095,0.00,VWS V14.01,2013-04-15 05:56:00,
2013-04-15 02:00:00,53.0,38.6,29.99,East,101,0.0,7.0,58,0.00,,,0.00,VWS V14.01,2013-04-15 06:00:00,
2013-04-15 02:01:00,52.9,39.0,29.99,SE,144,1.0,4.0,59,0.00,,OVC095,0.00,VWS V14.01,2013-04-15 06:01:00,
2013-04-15 02:06:00,53.0,39.1,29.99,SE,126,2.0,7.0,59,0.00,,OVC095,0.00,VWS V14.01,2013-04-15 06:06:00,
2013-04-15 02:10:00,52.6,39.5,29.99,WSW,252,3.0,7.0,61,0.00,,,0.00,VWS V14.01,2013-04-15 06:10:00,
2013-04-15 02:11:00,52.9,39.0,29.99,SE,134,2.0,6.0,59,0.00,,OVC095,0.00,VWS V14.01,2013-04-15 06:11:00,
2013-04-15 02:16:00,52.6,39.5,29.99,SSE,159,2.0,7.0,61,0.00,,OVC095,0.00,VWS V14.01,2013-04-15 06:16:00,
2013-04-15 02:20:00,52.7,38.8,29.99,SE,126,1.0,7.0,59,0.00,,,0.00,VWS V14.01,2013-04-15 06:20:00,
2013-04-15 02:21:00,52.4,38.9,29.99,South,190,4.0,7.0,60,0.00,,OVC095,0.00,VWS V14.01,2013-04-15 06:21:00,
2013-04-15 02:26:00,52.7,39.2,29.99,ESE,122,2.0,7.0,60,0.00,,OVC095,0.00,VWS V14.01,2013-04-15 06:26:00,
2013-04-15 02:30:00,52.4,38.9,29.97,SSW,200,3.0,10.0,60,0.00,,,0.00,VWS V14.01,2013-04-15 06:30:00,
2013-04-15 02:31:00,52.6,39.1,29.99,SSE,149,9.0,10.0,60,0.00,,OVC095,0.00,VWS V14.01,2013-04-15 06:31:00,
2013-04-15 02:36:00,52.5,39.5,29.97,SSE,159,0.0,10.0,61,0.00,,OVC095,0.00,VWS V14.01,2013-04-15 06:36:00,
2013-04-15 02:40:00,52.5,39.0,29.97,SSE,161,0.0,5.0,60,0.00,,,0.00,VWS V14.01,2013-04-15 06:40:00,
2013-04-15 02:41:00,52.6,39.1,29.97,SSE,154,2.0,5.0,60,0.00,,OVC095,0.00,VWS V14.01,2013-04-15 06:41:00,
2013-04-15 02:46:00,52.6,39.1,29.97,SSE,148,0.0,5.0,60,0.00,,OVC095,0.00,VWS V14.01,2013-04-15 06:46:00,
2013-04-15 02:50:00,52.4,38.9,29.96,SSE,157,0.0,2.0,60,0.00,,,0.00,VWS V14.01,2013-04-15 06:50:00,
2013-04-15 02:51:00,52.4,38.9,29.96,SSE,158,0.0,2.0,60,0.00,,OVC095,0.00,VWS V14.01,2013-04-15 06:51:00,
2013-04-15 02:57:00,52.4,38.9,29.96,SSE,158,0.0,2.0,60,0.00,,OVC095,0.00,VWS V14.01,2013-04-15 06:57:00,
2013-04-15 03:00:00,52.3,39.3,29.97,SSW,213,0.0,3.0,61,0.00,,,0.00,VWS V14.01,2013-04-15 07:00:00,
2013-04-15 03:02:00,52.5,39.0,29.96,SSW,213,0.0,3.0,60,0.00,,OVC090,0.00,VWS V14.01,2013-04-15 07:02:00,
2013-04-15 03:10:00,51.9,39.3,29.97,SSE,152,2.0,5.0,62,0.00,,,0.00,VWS V14.01,2013-04-15 07:10:00,
2013-04-15 03:20:00,52.4,39.4,29.96,SW,229,2.0,7.0,61,0.00,,,0.00,VWS V14.01,2013-04-15 07:20:00,
2013-04-15 03:30:00,52.2,39.6,29.98,South,178,3.0,6.0,62,0.00,,,0.00,VWS V14.01,2013-04-15 07:30:00,
2013-04-15 03:40:00,52.0,39.4,29.98,WNW,286,1.0,6.0,62,0.00,,,0.00,VWS V14.01,2013-04-15 07:40:00,
2013-04-15 03:41:00,52.2,39.6,29.98,SSE,150,0.0,3.0,62,0.00,,OVC090,0.00,VWS V14.01,2013-04-15 07:41:00,
2013-04-15 03:46:00,52.0,39.4,29.98,WNW,286,1.0,6.0,62,0.00,,OVC090,0.00,VWS V14.01,2013-04-15 07:46:00,
2013-04-15 03:48:00,52.0,39.4,29.98,WNW,286,0.0,1.0,62,0.00,,OVC090,0.00,VWS V14.01,2013-04-15 07:48:00,
2013-04-15 03:50:00,52.1,39.5,29.98,ESE,112,3.0,5.0,62,0.00,,,0.00,VWS V14.01,2013-04-15 07:50:00,
2013-04-15 03:51:00,52.0,39.4,29.98,SW,228,0.0,3.0,62,0.00,,OVC090,0.00,VWS V14.01,2013-04-15 07:51:00,
2013-04-15 03:56:00,52.1,39.5,29.98,South,188,4.0,5.0,62,0.00,,OVC090,0.00,VWS V14.01,2013-04-15 07:56:00,
2013-04-15 04:00:00,52.3,39.7,29.98,West,273,2.0,10.0,62,0.00,,,0.00,VWS V14.01,2013-04-15 08:00:00,
2013-04-15 04:01:00,52.1,39.5,29.98,SE,143,2.0,10.0,62,0.00,,SCT080,0.00,VWS V14.01,2013-04-15 08:01:00,
2013-04-15 04:06:00,52.2,39.6,29.98,South,183,6.0,10.0,62,0.00,,SCT080,0.00,VWS V14.01,2013-04-15 08:06:00,
2013-04-15 04:10:00,52.3,39.7,29.98,SE,131,0.0,9.0,62,0.00,,,0.00,VWS V14.01,2013-04-15 08:10:00,
2013-04-15 04:11:00,52.3,39.7,29.98,WSW,244,2.0,9.0,62,0.00,,SCT080,0.00,VWS V14.01,2013-04-15 08:11:00,
2013-04-15 04:16:00,52.3,39.7,29.98,SE,131,4.0,9.0,62,0.00,,SCT080,0.00,VWS V14.01,2013-04-15 08:16:00,
2013-04-15 04:20:00,52.2,39.6,29.98,SW,227,0.0,9.0,62,0.00,,,0.00,VWS V14.01,2013-04-15 08:20:00,
2013-04-15 04:21:00,52.1,39.5,29.98,South,186,5.0,5.0,62,0.00,,SCT080,0.00,VWS V14.01,2013-04-15 08:21:00,
2013-04-15 04:26:00,52.2,39.6,29.98,SW,228,3.0,9.0,62,0.00,,SCT080,0.00,VWS V14.01,2013-04-15 08:26:00,
2013-04-15 04:30:00,52.2,39.6,29.99,SW,223,0.0,9.0,62,0.00,,,0.00,VWS V14.01,2013-04-15 08:30:00,
2013-04-15 04:32:00,52.3,39.7,29.98,WSW,252,3.0,9.0,62,0.00,,SCT080,0.00,VWS V14.01,2013-04-15 08:32:00,
2013-04-15 04:35:00,52.3,39.7,29.98,SW,223,3.0,9.0,62,0.00,,SCT080,0.00,VWS V14.01,2013-04-15 08:35:00,
2013-04-15 04:40:00,52.2,39.6,29.99,SW,223,1.0,3.0,62,0.00,,SCT080,0.00,VWS V14.01,2013-04-15 08:40:00,
2013-04-15 04:45:00,52.1,39.5,29.99,SSW,211,6.0,9.0,62,0.00,,SCT080,0.00,VWS V14.01,2013-04-15 08:45:00,
2013-04-15 04:50:00,52.2,39.6,29.99,SSE,156,5.0,9.0,62,0.00,,SCT080,0.00,VWS V14.01,2013-04-15 08:50:00,
2013-04-15 04:55:00,52.1,39.9,29.99,SSW,198,0.0,9.0,63,0.00,,SCT080,0.00,VWS V14.01,2013-04-15 08:55:00,
2013-04-15 05:00:00,51.9,39.7,29.99,South,175,3.0,4.0,63,0.00,,SCT080,0.00,VWS V14.01,2013-04-15 09:00:00,
2013-04-15 05:05:00,51.8,40.0,29.99,NNW,334,2.0,4.0,64,0.00,,BKN090,0.00,VWS V14.01,2013-04-15 09:05:00,
2013-04-15 05:10:00,51.9,39.7,29.99,SSE,161,0.0,4.0,63,0.00,,BKN090,0.00,VWS V14.01,2013-04-15 09:10:00,
2013-04-15 05:15:00,51.8,39.6,29.99,SSE,164,0.0,4.0,63,0.00,,BKN090,0.00,VWS V14.01,2013-04-15 09:15:00,
2013-04-15 05:20:00,51.8,40.0,29.99,SSE,160,0.0,0.0,64,0.00,,BKN090,0.00,VWS V14.01,2013-04-15 09:20:00,
2013-04-15 05:25:00,51.7,39.9,29.99,SE,140,4.0,4.0,64,0.00,,BKN090,0.00,VWS V14.01,2013-04-15 09:25:00,
2013-04-15 05:30:00,51.8,39.6,29.99,SSE,161,0.0,4.0,63,0.00,,BKN090,0.00,VWS V14.01,2013-04-15 09:30:00,
2013-04-15 05:35:00,51.8,40.0,29.99,South,173,0.0,4.0,64,0.00,,BKN090,0.00,VWS V14.01,2013-04-15 09:35:00,
2013-04-15 05:40:00,51.7,39.9,29.99,SE,137,3.0,5.0,64,0.00,,BKN090,0.00,VWS V14.01,2013-04-15 09:40:00,
2013-04-15 05:45:00,51.7,39.9,29.99,SE,134,0.0,5.0,64,0.00,,BKN090,0.00,VWS V14.01,2013-04-15 09:45:00,
2013-04-15 05:50:00,51.6,39.8,29.99,SSE,155,0.0,4.0,64,0.00,,BKN090,0.00,VWS V14.01,2013-04-15 09:50:00,
2013-04-15 05:55:00,51.7,39.9,30.00,SSE,164,0.0,4.0,64,0.00,,BKN090,0.00,VWS V14.01,2013-04-15 09:55:00,
2013-04-15 06:00:00,51.6,39.8,30.00,SSE,153,0.0,1.0,64,0.00,,-RA,0.00,VWS V14.01,2013-04-15 10:00:00,
2013-04-15 06:05:00,51.7,39.9,30.00,SSE,152,0.0,3.0,64,0.00,,-RA,0.00,VWS V14.01,2013-04-15 10:05:00,
2013-04-15 06:10:00,51.6,39.8,30.01,SW,216,0.0,3.0,64,0.00,,-RA,0.00,VWS V14.01,2013-04-15 10:10:00,
2013-04-15 06:15:00,51.6,39.8,30.01,South,178,1.0,4.0,64,0.00,,-RA,0.00,VWS V14.01,2013-04-15 10:15:00,
2013-04-15 06:20:00,51.2,39.8,30.01,SE,145,2.0,4.0,65,0.00,,-RA,0.00,VWS V14.01,2013-04-15 10:20:00,
2013-04-15 06:25:00,50.9,40.3,30.01,SE,145,0.0,4.0,67,0.00,,-RA,0.00,VWS V14.01,2013-04-15 10:25:00,
2013-04-15 06:30:00,50.8,40.2,30.01,SE,146,0.0,2.0,67,0.00,,-RA,0.00,VWS V14.01,2013-04-15 10:30:00,
2013-04-15 06:35:00,51.0,40.4,30.01,South,169,1.0,2.0,67,0.00,,-RA,0.00,VWS V14.01,2013-04-15 10:35:00,
2013-04-15 06:40:00,51.4,40.4,30.02,SW,219,0.0,3.0,66,0.00,,-RA,0.00,VWS V14.01,2013-04-15 10:40:00,
2013-04-15 06:45:00,51.6,40.2,30.02,West,280,0.0,3.0,65,0.00,,-RA,0.00,VWS V14.01,2013-04-15 10:45:00,
2013-04-15 06:50:00,51.7,39.9,30.03,West,273,2.0,3.0,64,0.00,,,0.00,VWS V14.01,2013-04-15 10:50:00,
2013-04-15 06:51:00,51.5,40.1,30.02,West,274,1.0,3.0,65,0.00,,-RA,0.00,VWS V14.01,2013-04-15 10:51:00,
2013-04-15 06:56:00,51.6,39.8,30.03,West,274,0.0,3.0,64,0.00,,-RA,0.00,VWS V14.01,2013-04-15 10:56:00,
2013-04-15 07:00:00,51.5,40.1,30.03,West,274,0.0,3.0,65,0.00,,,0.00,VWS V14.01,2013-04-15 11:00:00,
2013-04-15 07:01:00,51.6,39.8,30.03,West,273,0.0,3.0,64,0.00,,OVC090,0.00,VWS V14.01,2013-04-15 11:01:00,
2013-04-15 07:06:00,51.5,40.1,30.03,West,274,0.0,3.0,65,0.00,,OVC090,0.00,VWS V14.01,2013-04-15 11:06:00,
2013-04-15 07:10:00,51.2,40.2,30.03,West,273,0.0,1.0,66,0.00,,,0.00,VWS V14.01,2013-04-15 11:10:00,
2013-04-15 07:11:00,51.4,40.0,30.03,West,274,0.0,1.0,65,0.00,,OVC090,0.00,VWS V14.01,2013-04-15 11:11:00,
2013-04-15 07:16:00,51.2,40.2,30.03,West,273,0.0,1.0,66,0.00,,OVC090,0.00,VWS V14.01,2013-04-15 11:16:00,
2013-04-15 07:20:00,51.1,40.5,30.05,South,178,0.0,2.0,67,0.00,,,0.00,VWS V14.01,2013-04-15 11:20:00,
2013-04-15 07:22:00,51.2,40.2,30.05,West,274,0.0,1.0,66,0.00,,OVC090,0.00,VWS V14.01,2013-04-15 11:22:00,
2013-04-15 07:27:00,51.1,40.5,30.05,South,178,0.0,2.0,67,0.00,,OVC090,0.00,VWS V14.01,2013-04-15 11:27:00,
2013-04-15 07:30:00,51.2,40.6,30.05,SSE,151,0.0,3.0,67,0.00,,,0.00,VWS V14.01,2013-04-15 11:30:00,
2013-04-15 07:32:00,51.1,40.5,30.05,South,178,0.0,1.0,67,0.00,,OVC090,0.00,VWS V14.01,2013-04-15 11:32:00,
2013-04-15 07:37:00,51.2,40.6,30.05,SSE,151,0.0,3.0,67,0.00,,OVC090,0.00,VWS V14.01,2013-04-15 11:37:00,
2013-04-15 07:40:00,51.4,41.2,30.05,SE,142,0.0,2.0,68,0.00,,,0.00,VWS V14.01,2013-04-15 11:40:00,
2013-04-15 07:42:00,51.3,41.1,30.05,SE,142,0.0,2.0,68,0.00,,OVC090,0.00,VWS V14.01,2013-04-15 11:42:00,
2013-04-15 07:47:00,51.4,41.2,30.05,SE,142,0.0,2.0,68,0.00,,OVC090,0.00,VWS V14.01,2013-04-15 11:47:00,
2013-04-15 07:50:00,51.7,41.5,30.06,SE,142,0.0,2.0,68,0.00,,,0.00,VWS V14.01,2013-04-15 11:50:00,
2013-04-15 07:52:00,51.6,41.4,30.06,SE,142,0.0,2.0,68,0.00,,OVC090,0.00,VWS V14.01,2013-04-15 11:52:00,
2013-04-15 07:57:00,51.7,41.5,30.06,SE,142,0.0,2.0,68,0.00,,OVC090,0.00,VWS V14.01,2013-04-15 11:57:00,
2013-04-15 08:00:00,52.1,42.2,30.06,SSE,159,0.0,9.0,69,0.00,,,0.00,VWS V14.01,2013-04-15 12:00:00,
2013-04-15 08:03:00,51.9,41.7,30.06,SSE,154,0.0,2.0,68,0.00,,OVC090,0.00,VWS V14.01,2013-04-15 12:03:00,
2013-04-15 08:08:00,52.1,42.2,30.06,SSE,159,0.0,0.0,69,0.00,,OVC090,0.00,VWS V14.01,2013-04-15 12:08:00,
2013-04-15 08:10:00,52.3,42.5,30.06,SE,132,0.0,12.0,69,0.00,,,0.00,VWS V14.01,2013-04-15 12:10:00,
2013-04-15 08:13:00,52.2,42.7,30.06,SSE,163,4.0,12.0,70,0.00,,OVC090,0.00,VWS V14.01,2013-04-15 12:13:00,
2013-04-15 08:18:00,52.3,42.8,30.06,SSE,161,3.0,3.0,70,0.00,,OVC090,0.00,VWS V14.01,2013-04-15 12:18:00,
2013-04-15 08:20:00,52.8,43.3,30.06,South,173,5.0,9.0,70,0.00,,,0.00,VWS V14.01,2013-04-15 12:20:00,
2013-04-15 08:23:00,52.5,43.0,30.06,SE,136,1.0,9.0,70,0.00,,OVC090,0.00,VWS V14.01,2013-04-15 12:23:00,
2013-04-15 08:28:00,52.8,43.3,30.06,ESE,119,3.0,5.0,70,0.00,,OVC090,0.00,VWS V14.01,2013-04-15 12:28:00,
2013-04-15 08:30:00,53.2,43.7,30.05,SSE,163,1.0,9.0,70,0.00,,,0.00,VWS V14.01,2013-04-15 12:30:00,
2013-04-15 08:33:00,53.1,43.6,30.06,SE,145,3.0,7.0,70,0.00,,-RA,0.00,VWS V14.01,2013-04-15 12:33:00,
2013-04-15 08:38:00,53.2,43.7,30.05,ESE,108,5.0,6.0,70,0.00,,-RA,0.00,VWS V14.01,2013-04-15 12:38:00,
2013-04-15 08:40:00,53.3,44.2,30.05,SSE,156,1.0,12.0,71,0.00,,,0.00,VWS V14.01,2013-04-15 12:40:00,
2013-04-15 08:43:00,53.2,44.0,30.05,SSE,166,4.0,10.0,71,0.00,,-RA,0.00,VWS V14.01,2013-04-15 12:43:00,
2013-04-15 08:48:00,53.3,44.5,30.05,SE,146,6.0,10.0,72,0.00,,-RA,0.00,VWS V14.01,2013-04-15 12:48:00,
2013-04-15 08:50:00,53.7,44.9,30.05,SE,136,10.0,11.0,72,0.00,,,0.00,VWS V14.01,2013-04-15 12:50:00,
2013-04-15 08:53:00,53.5,44.3,30.05,SSE,157,3.0,11.0,71,0.00,,-RA,0.00,VWS V14.01,2013-04-15 12:53:00,
2013-04-15 08:58:00,53.7,44.5,30.05,SSE,163,3.0,11.0,71,0.00,,-RA,0.00,VWS V14.01,2013-04-15 12:58:00,
2013-04-15 09:00:00,53.7,44.9,30.05,SE,141,6.0,17.0,72,0.00,,,0.00,VWS V14.01,2013-04-15 13:00:00,
2013-04-15 09:03:00,53.7,44.9,30.05,SE,146,15.0,15.0,72,0.00,,-RA,0.00,VWS V14.01,2013-04-15 13:03:00,
2013-04-15 09:08:00,54.0,45.5,30.05,South,169,6.0,11.0,73,0.00,,-RA,0.00,VWS V14.01,2013-04-15 13:08:00,
2013-04-15 09:10:00,55.0,45.8,30.05,SSE,163,6.0,15.0,71,0.00,,,0.00,VWS V14.01,2013-04-15 13:10:00,
2013-04-15 09:13:00,54.9,46.1,30.05,SE,133,4.0,14.0,72,0.00,,-RA,0.00,VWS V14.01,2013-04-15 13:13:00,
2013-04-15 09:18:00,55.0,45.4,30.05,SSE,164,3.0,9.0,70,0.00,,-RA,0.00,VWS V14.01,2013-04-15 13:18:00,
2013-04-15 09:20:00,55.5,45.9,30.04,South,188,7.0,15.0,70,0.00,,,0.00,VWS V14.01,2013-04-15 13:20:00,
2013-04-15 09:23:00,55.5,45.9,30.04,SSE,156,7.0,14.0,70,0.00,,-RA,0.00,VWS V14.01,2013-04-15 13:23:00,
2013-04-15 09:28:00,55.5,45.9,30.04,SSE,152,6.0,11.0,70,0.00,,-RA,0.00,VWS V14.01,2013-04-15 13:28:00,
2013-04-15 09:30:00,55.4,45.8,30.04,ESE,117,6.0,13.0,70,0.00,,,0.00,VWS V14.01,2013-04-15 13:30:00,
2013-04-15 09:33:00,55.5,45.9,30.04,East,94,10.0,13.0,70,0.00,,OVC090,0.00,VWS V14.01,2013-04-15 13:33:00,
2013-04-15 09:38:00,55.5,46.3,30.04,SE,138,3.0,9.0,71,0.00,,OVC090,0.00,VWS V14.01,2013-04-15 13:38:00,
2013-04-15 09:40:00,56.1,46.8,30.04,SE,133,12.0,20.0,71,0.00,,,0.00,VWS V14.01,2013-04-15 13:40:00,
2013-04-15 09:43:00,55.9,46.3,30.04,SE,136,6.0,20.0,70,0.00,,OVC090,0.00,VWS V14.01,2013-04-15 13:43:00,
2013-04-15 09:48:00,56.0,46.4,30.04,SSE,164,12.0,15.0,70,0.00,,OVC090,0.00,VWS V14.01,2013-04-15 13:48:00,
2013-04-15 09:50:00,55.8,46.9,30.03,SSE,158,13.0,20.0,72,0.00,,,0.00,VWS V14.01,2013-04-15 13:50:00,
2013-04-15 09:54:00,55.7,45.7,30.03,SE,136,9.0,20.0,69,0.00,,OVC090,0.00,VWS V14.01,2013-04-15 13:54:00,
2013-04-15 09:59:00,56.0,46.4,30.03,SSE,152,5.0,18.0,70,0.00,,OVC090,0.00,VWS V14.01,2013-04-15 13:59:00,
2013-04-15 10:00:00,57.4,46.9,30.03,SE,142,7.0,19.0,68,0.00,,,0.00,VWS V14.01,2013-04-15 14:00:00,
2013-04-15 10:04:00,57.0,46.9,30.03,South,169,14.0,19.0,69,0.00,,BKN120,0.00,VWS V14.01,2013-04-15 14:04:00,
2013-04-15 10:09:00,57.0,46.2,30.03,South,180,12.0,24.0,67,0.00,,BKN120,0.00,VWS V14.01,2013-04-15 14:09:00,
2013-04-15 10:10:00,57.8,47.3,30.03,SSW,201,14.0,24.0,68,0.00,,,0.00,VWS V14.01,2013-04-15 14:10:00,
2013-04-15 10:14:00,57.4,47.3,30.03,SE,125,7.0,24.0,69,0.00,,BKN120,0.00,VWS V14.01,2013-04-15 14:14:00,
2013-04-15 10:20:00,58.1,47.6,30.03,SSE,165,6.0,16.0,68,0.00,,BKN120,0.00,VWS V14.01,2013-04-15 14:20:00,
2013-04-15 10:25:00,57.6,47.1,30.03,SSE,155,11.0,19.0,68,0.00,,BKN120,0.00,VWS V14.01,2013-04-15 14:25:00,
2013-04-15 10:30:00,58.2,47.3,30.03,SE,140,9.0,15.0,67,0.00,,BKN120,0.00,VWS V14.01,2013-04-15 14:30:00,
2013-04-15 10:35:00,58.5,47.6,30.03,ESE,111,9.0,17.0,67,0.00,,BKN120,0.00,VWS V14.01,2013-04-15 14:35:00,
2013-04-15 10:40:00,58.0,47.5,30.03,SE,128,11.0,17.0,68,0.00,,BKN120,0.00,VWS V14.01,2013-04-15 14:40:00,
2013-04-15 10:45:00,58.0,47.5,30.03,SE,138,9.0,21.0,68,0.00,,BKN120,0.00,VWS V14.01,2013-04-15 14:45:00,
2013-04-15 10:50:00,57.8,47.7,30.03,SSE,148,9.0,19.0,69,0.00,,BKN120,0.00,VWS V14.01,2013-04-15 14:50:00,
2013-04-15 10:55:00,57.6,47.5,30.04,SSE,157,7.0,19.0,69,0.00,,BKN120,0.00,VWS V14.01,2013-04-15 14:55:00,
2013-04-15 11:00:00,56.7,46.3,30.04,South,170,12.0,21.0,68,0.00,,BKN120,0.00,VWS V14.01,2013-04-15 15:00:00,
2013-04-15 11:05:00,57.1,47.4,30.04,SE,144,4.0,21.0,70,0.00,,FEW100,0.00,VWS V14.01,2013-04-15 15:05:00,
2013-04-15 11:10:00,57.7,47.2,30.04,ESE,119,9.0,15.0,68,0.00,,FEW100,0.00,VWS V14.01,2013-04-15 15:10:00,
2013-04-15 11:15:00,57.5,47.4,30.04,ESE,118,10.0,16.0,69,0.00,,FEW100,0.00,VWS V14.01,2013-04-15 15:15:00,
2013-04-15 11:20:00,57.0,46.9,30.04,SSE,156,4.0,15.0,69,0.00,,FEW100,0.00,VWS V14.01,2013-04-15 15:20:00,
2013-04-15 11:25:00,57.4,47.3,30.05,SSE,156,7.0,16.0,69,0.00,,FEW100,0.00,VWS V14.01,2013-04-15 15:25:00,
2013-04-15 11:30:00,57.5,47.0,30.05,SSE,162,9.0,15.0,68,0.00,,FEW100,0.00,VWS V14.01,2013-04-15 15:30:00,
2013-04-15 11:35:00,57.1,47.0,30.05,ESE,116,5.0,15.0,69,0.00,,FEW100,0.00,VWS V14.01,2013-04-15 15:35:00,
2013-04-15 11:40:00,57.3,47.2,30.05,SE,130,10.0,16.0,69,0.00,,FEW100,0.00,VWS V14.01,2013-04-15 15:40:00,
2013-04-15 11:45:00,57.5,46.6,30.05,SSE,163,7.0,23.0,67,0.00,,FEW100,0.00,VWS V14.01,2013-04-15 15:45:00,
2013-04-15 11:50:00,57.3,47.2,30.05,SSE,150,17.0,18.0,69,0.00,,FEW100,0.00,VWS V14.01,2013-04-15 15:50:00,
2013-04-15 11:55:00,57.2,47.5,30.05,SE,138,13.0,22.0,70,0.00,,FEW100,0.00,VWS V14.01,2013-04-15 15:55:00,
2013-04-15 12:00:00,56.9,46.8,30.05,South,175,18.0,20.0,69,0.00,,FEW033,0.00,VWS V14.01,2013-04-15 16:00:00,
2013-04-15 12:06:00,56.8,46.8,30.05,SSE,163,7.0,20.0,69,0.00,,FEW033,0.00,VWS V14.01,2013-04-15 16:06:00,
2013-04-15 12:10:00,56.8,47.1,30.05,SSE,148,5.0,16.0,70,0.00,,,0.00,VWS V14.01,2013-04-15 16:10:00,
2013-04-15 12:11:00,56.9,47.2,30.05,South,186,10.0,11.0,70,0.00,,FEW033,0.00,VWS V14.01,2013-04-15 16:11:00,
2013-04-15 12:16:00,56.9,46.8,30.05,South,171,9.0,16.0,69,0.00,,FEW033,0.00,VWS V14.01,2013-04-15 16:16:00,
2013-04-15 12:20:00,56.2,46.6,30.05,South,183,6.0,19.0,70,0.00,,,0.00,VWS V14.01,2013-04-15 16:20:00,
2013-04-15 12:21:00,56.8,47.1,30.05,SSE,151,9.0,14.0,70,0.00,,FEW033,0.00,VWS V14.01,2013-04-15 16:21:00,
2013-04-15 12:26:00,56.5,47.2,30.05,SE,132,16.0,16.0,71,0.00,,FEW033,0.00,VWS V14.01,2013-04-15 16:26:00,
2013-04-15 12:30:00,56.2,46.9,30.06,SE,130,2.0,17.0,71,0.00,,,0.00,VWS V14.01,2013-04-15 16:30:00,
2013-04-15 12:31:00,56.0,46.7,30.05,SSW,210,1.0,16.0,71,0.00,,FEW033,0.00,VWS V14.01,2013-04-15 16:31:00,
2013-04-15 12:36:00,56.2,46.9,30.06,SSE,159,4.0,17.0,71,0.00,,FEW033,0.00,VWS V14.01,2013-04-15 16:36:00,
2013-04-15 12:40:00,56.3,47.4,30.06,ESE,121,12.0,15.0,72,0.00,,,0.00,VWS V14.01,2013-04-15 16:40:00,
2013-04-15 12:41:00,56.2,46.9,30.06,SE,140,5.0,15.0,71,0.00,,FEW033,0.00,VWS V14.01,2013-04-15 16:41:00,
2013-04-15 12:46:00,56.3,47.4,30.06,SSE,157,11.0,15.0,72,0.00,,FEW033,0.00,VWS V14.01,2013-04-15 16:46:00,
2013-04-15 12:50:00,56.0,47.1,30.06,SE,140,9.0,17.0,72,0.00,,,0.00,VWS V14.01,2013-04-15 16:50:00,
2013-04-15 12:52:00,56.2,47.7,30.06,ESE,115,4.0,15.0,73,0.00,,FEW033,0.00,VWS V14.01,2013-04-15 16:52:00,
2013-04-15 12:57:00,56.1,47.6,30.06,SSE,151,13.0,15.0,73,0.00,,FEW033,0.00,VWS V14.01,2013-04-15 16:57:00,
2013-04-15 13:00:00,55.5,47.4,30.06,SSE,152,9.0,18.0,74,0.00,,,0.00,VWS V14.01,2013-04-15 17:00:00,
2013-04-15 13:02:00,55.7,46.8,30.06,South,181,9.0,18.0,72,0.00,,OVC055,0.00,VWS V14.01,2013-04-15 17:02:00,
2013-04-15 13:07:00,55.5,47.4,30.06,South,183,7.0,18.0,74,0.00,,OVC055,0.00,VWS V14.01,2013-04-15 17:07:00,
2013-04-15 13:10:00,55.0,47.2,30.06,SE,145,11.0,18.0,75,0.00,,,0.00,VWS V14.01,2013-04-15 17:10:00,
2013-04-15 13:12:00,55.9,48.5,30.06,SE,132,4.0,16.0,76,0.00,,OVC055,0.00,VWS V14.01,2013-04-15 17:12:00,
2013-04-15 13:17:00,55.0,47.2,30.06,SE,145,11.0,18.0,75,0.00,,OVC055,0.00,VWS V14.01,2013-04-15 17:17:00,
2013-04-15 13:20:00,54.4,48.4,30.07,South,179,9.0,20.0,80,0.00,,,0.00,VWS V14.01,2013-04-15 17:20:00,
2013-04-15 13:21:00,54.3,47.2,30.06,ESE,111,4.0,20.0,77,0.00,,OVC055,0.00,VWS V14.01,2013-04-15 17:21:00,
2013-04-15 13:22:00,54.3,47.6,30.07,SE,138,3.0,20.0,78,0.00,,OVC055,0.00,VWS V14.01,2013-04-15 17:22:00,
2013-04-15 13:26:00,54.4,48.4,30.07,SE,138,7.0,20.0,80,0.00,,OVC055,0.00,VWS V14.01,2013-04-15 17:26:00,
2013-04-15 13:30:00,54.6,47.9,30.06,ESE,105,10.0,13.0,78,0.00,,,0.00,VWS V14.01,2013-04-15 17:30:00,
2013-04-15 13:31:00,54.4,48.0,30.07,South,169,3.0,9.0,79,0.00,,OVC055,0.00,VWS V14.01,2013-04-15 17:31:00,
2013-04-15 13:36:00,54.5,48.1,30.06,SSE,155,4.0,13.0,79,0.00,,OVC055,0.00,VWS V14.01,2013-04-15 17:36:00,
2013-04-15 13:40:00,55.1,47.7,30.06,SE,136,0.0,15.0,76,0.00,,,0.00,VWS V14.01,2013-04-15 17:40:00,
2013-04-15 13:41:00,54.8,48.1,30.06,South,184,3.0,13.0,78,0.00,,OVC055,0.00,VWS V14.01,2013-04-15 17:41:00,
2013-04-15 13:46:00,55.1,48.0,30.06,South,183,9.0,15.0,77,0.00,,OVC055,0.00,VWS V14.01,2013-04-15 17:46:00,
2013-04-15 13:50:00,55.9,48.5,30.06,SE,132,4.0,14.0,76,0.00,,,0.00,VWS V14.01,2013-04-15 17:50:00,
2013-04-15 13:51:00,55.5,48.1,30.06,SE,144,3.0,14.0,76,0.00,,OVC055,0.00,VWS V14.01,2013-04-15 17:51:00,
2013-04-15 13:56:00,55.8,48.0,30.06,South,172,3.0,14.0,75,0.00,,OVC055,0.00,VWS V14.01,2013-04-15 17:56:00,
2013-04-15 14:00:00,54.7,48.0,30.07,SSE,167,5.0,15.0,78,0.00,,,0.00,VWS V14.01,2013-04-15 18:00:00,
2013-04-15 14:01:00,55.3,47.5,30.06,South,187,15.0,15.0,75,0.00,,OVC039,0.00,VWS V14.01,2013-04-15 18:01:00,
2013-04-15 14:07:00,54.7,48.0,30.07,SSW,194,6.0,15.0,78,0.00,,OVC039,0.00,VWS V14.01,2013-04-15 18:07:00,
2013-04-15 14:10:00,54.6,47.9,30.07,ESE,123,3.0,17.0,78,0.00,,,0.00,VWS V14.01,2013-04-15 18:10:00,
2013-04-15 14:12:00,54.7,48.0,30.07,SSE,168,8.0,13.0,78,0.00,,OVC039,0.00,VWS V14.01,2013-04-15 18:12:00,
2013-04-15 14:17:00,54.6,47.9,30.07,SE,136,5.0,17.0,78,0.00,,OVC039,0.00,VWS V14.01,2013-04-15 18:17:00,
2013-04-15 14:20:00,54.7,48.0,30.07,SSE,165,3.0,16.0,78,0.00,,,0.00,VWS V14.01,2013-04-15 18:20:00,
2013-04-15 14:22:00,54.5,47.8,30.07,ESE,110,10.0,16.0,78,0.00,,OVC039,0.00,VWS V14.01,2013-04-15 18:22:00,
2013-04-15 14:27:00,54.7,48.0,30.07,South,169,3.0,16.0,78,0.00,,OVC039,0.00,VWS V14.01,2013-04-15 18:27:00,
2013-04-15 14:29:00,54.8,48.4,30.07,SE,130,5.0,6.0,79,0.00,,OVC039,0.00,VWS V14.01,2013-04-15 18:29:00,
2013-04-15 14:30:00,54.8,48.4,30.07,SSE,156,9.0,11.0,79,0.00,,OVC039,0.00,VWS V14.01,2013-04-15 18:30:00,
2013-04-15 14:35:00,55.0,48.6,30.07,SE,138,10.0,15.0,79,0.00,,OVC039,0.00,VWS V14.01,2013-04-15 18:35:00,
2013-04-15 14:40:00,54.8,48.8,30.06,SSE,161,11.0,13.0,80,0.00,,OVC039,0.00,VWS V14.01,2013-04-15 18:40:00,
2013-04-15 14:45:00,54.6,48.6,30.06,South,175,12.0,14.0,80,0.00,,OVC039,0.00,VWS V14.01,2013-04-15 18:45:00,
2013-04-15 14:50:00,54.8,48.4,30.06,SSE,152,10.0,13.0,79,0.00,,OVC039,0.00,VWS V14.01,2013-04-15 18:50:00,
2013-04-15 14:55:00,54.8,48.4,30.06,SSE,156,5.0,16.0,79,0.00,,OVC039,0.00,VWS V14.01,2013-04-15 18:55:00,
2013-04-15 15:00:00,54.7,48.0,30.06,SE,141,6.0,17.0,78,0.00,,OVC039,0.00,VWS V14.01,2013-04-15 19:00:00,
2013-04-15 15:05:00,54.8,48.4,30.06,South,178,10.0,17.0,79,0.00,,OVC055,0.00,VWS V14.01,2013-04-15 19:05:00,
2013-04-15 15:10:00,54.8,48.1,30.07,South,178,11.0,15.0,78,0.00,,OVC055,0.00,VWS V14.01,2013-04-15 19:10:00,
2013-04-15 15:15:00,54.6,47.9,30.07,East,96,9.0,18.0,78,0.00,,OVC055,0.00,VWS V14.01,2013-04-15 19:15:00,
2013-04-15 15:20:00,54.5,47.8,30.07,South,173,6.0,15.0,78,0.00,,OVC055,0.00,VWS V14.01,2013-04-15 19:20:00,
2013-04-15 15:25:00,54.5,47.8,30.06,SSE,159,14.0,18.0,78,0.00,,OVC055,0.00,VWS V14.01,2013-04-15 19:25:00,
2013-04-15 15:30:00,54.4,47.7,30.06,SE,135,10.0,24.0,78,0.00,,OVC055,0.00,VWS V14.01,2013-04-15 19:30:00,
2013-04-15 15:35:00,54.4,47.7,30.06,SE,127,1.0,24.0,78,0.00,,OVC055,0.00,VWS V14.01,2013-04-15 19:35:00,
2013-04-15 15:40:00,54.5,47.5,30.07,SSE,165,4.0,17.0,77,0.00,,OVC055,0.00,VWS V14.01,2013-04-15 19:40:00,
2013-04-15 15:45:00,54.5,47.1,30.07,SE,145,11.0,17.0,76,0.00,,OVC055,0.00,VWS V14.01,2013-04-15 19:45:00,
2013-04-15 15:50:00,54.8,47.4,30.07,SE,140,5.0,19.0,76,0.00,,,0.00,VWS V14.01,2013-04-15 19:50:00,
2013-04-15 15:51:00,54.6,47.5,30.07,SSE,162,9.0,9.0,77,0.00,,OVC055,0.00,VWS V14.01,2013-04-15 19:51:00,
2013-04-15 15:56:00,54.8,47.4,30.07,SSE,168,3.0,19.0,76,0.00,,OVC055,0.00,VWS V14.01,2013-04-15 19:56:00,
2013-04-15 15:57:00,54.8,47.4,30.07,East,99,13.0,19.0,76,0.00,,OVC055,0.00,VWS V14.01,2013-04-15 19:57:00,
2013-04-15 15:58:00,54.8,47.4,30.07,SSE,163,5.0,5.0,76,0.00,,OVC055,0.00,VWS V14.01,2013-04-15 19:58:00,
2013-04-15 16:00:00,55.1,47.3,30.06,South,184,10.0,21.0,75,0.00,,,0.00,VWS V14.01,2013-04-15 20:00:00,
2013-04-15 16:01:00,54.9,47.5,30.07,SE,146,2.0,21.0,76,0.00,,OVC037,0.00,VWS V14.01,2013-04-15 20:01:00,
2013-04-15 16:02:00,54.9,47.1,30.07,SE,135,4.0,21.0,75,0.00,,OVC037,0.00,VWS V14.01,2013-04-15 20:02:00,
2013-04-15 16:03:00,55.0,47.6,30.07,SE,146,2.0,21.0,76,0.00,,OVC037,0.00,VWS V14.01,2013-04-15 20:03:00,
2013-04-15 16:08:00,55.1,47.3,30.06,SSE,151,6.0,10.0,75,0.00,,OVC037,0.00,VWS V14.01,2013-04-15 20:08:00,
2013-04-15 16:10:00,55.3,47.2,30.06,SE,130,5.0,14.0,74,0.00,,,0.00,VWS V14.01,2013-04-15 20:10:00,
2013-04-15 16:13:00,55.2,47.4,30.06,SE,128,5.0,14.0,75,0.00,,OVC037,0.00,VWS V14.01,2013-04-15 20:13:00,
2013-04-15 16:18:00,55.3,47.2,30.06,SE,139,3.0,8.0,74,0.00,,OVC037,0.00,VWS V14.01,2013-04-15 20:18:00,
2013-04-15 16:20:00,55.5,47.0,30.06,ESE,117,4.0,13.0,73,0.00,,,0.00,VWS V14.01,2013-04-15 20:20:00,
2013-04-15 16:23:00,55.5,47.7,30.06,SSE,157,2.0,8.0,75,0.00,,OVC037,0.00,VWS V14.01,2013-04-15 20:23:00,
2013-04-15 16:28:00,55.5,47.0,30.06,SSE,157,8.0,8.0,73,0.00,,OVC037,0.00,VWS V14.01,2013-04-15 20:28:00,
2013-04-15 16:30:00,55.7,47.2,30.05,SSE,167,5.0,17.0,73,0.00,,,0.00,VWS V14.01,2013-04-15 20:30:00,
2013-04-15 16:33:00,55.6,47.5,30.06,South,172,10.0,15.0,74,0.00,,OVC037,0.00,VWS V14.01,2013-04-15 20:33:00,
2013-04-15 16:38:00,55.7,47.2,30.05,South,186,2.0,5.0,73,0.00,,OVC037,0.00,VWS V14.01,2013-04-15 20:38:00,
2013-04-15 16:40:00,56.1,47.2,30.05,NE,48,5.0,19.0,72,0.00,,,0.00,VWS V14.01,2013-04-15 20:40:00,
2013-04-15 16:43:00,55.9,47.0,30.05,SE,140,5.0,15.0,72,0.00,,OVC037,0.00,VWS V14.01,2013-04-15 20:43:00,
2013-04-15 16:48:00,56.1,47.2,30.05,South,182,4.0,6.0,72,0.00,,OVC037,0.00,VWS V14.01,2013-04-15 20:48:00,
2013-04-15 16:50:00,56.9,47.6,30.04,SW,216,1.0,15.0,71,0.00,,,0.00,VWS V14.01,2013-04-15 20:50:00,
2013-04-15 16:53:00,56.7,47.8,30.04,South,190,4.0,13.0,72,0.00,,OVC037,0.00,VWS V14.01,2013-04-15 20:53:00,
2013-04-15 16:58:00,57.0,47.7,30.04,SW,216,0.0,1.0,71,0.00,,OVC037,0.00,VWS V14.01,2013-04-15 20:58:00,
2013-04-15 17:00:00,57.4,47.7,30.04,SE,140,3.0,12.0,70,0.00,,,0.00,VWS V14.01,2013-04-15 21:00:00,
2013-04-15 17:03:00,57.3,47.6,30.04,SE,139,6.0,11.0,70,0.00,,OVC031,0.00,VWS V14.01,2013-04-15 21:03:00,
2013-04-15 17:08:00,57.5,47.8,30.04,WSW,240,4.0,5.0,70,0.00,,OVC031,0.00,VWS V14.01,2013-04-15 21:08:00,
2013-04-15 17:10:00,57.3,47.2,30.04,SE,132,5.0,13.0,69,0.00,,,0.00,VWS V14.01,2013-04-15 21:10:00,
2013-04-15 17:13:00,57.4,47.3,30.04,South,174,12.0,13.0,69,0.00,,OVC031,0.00,VWS V14.01,2013-04-15 21:13:00,
2013-04-15 17:18:00,57.3,47.2,30.04,SSE,165,9.0,11.0,69,0.00,,OVC031,0.00,VWS V14.01,2013-04-15 21:18:00,
2013-04-15 17:20:00,57.4,47.3,30.04,SE,141,6.0,18.0,69,0.00,,,0.00,VWS V14.01,2013-04-15 21:20:00,
2013-04-15 17:23:00,57.5,47.4,30.04,SSW,197,10.0,18.0,69,0.00,,OVC031,0.00,VWS V14.01,2013-04-15 21:23:00,
2013-04-15 17:28:00,57.4,47.3,30.04,ESE,120,2.0,9.0,69,0.00,,OVC031,0.00,VWS V14.01,2013-04-15 21:28:00,
2013-04-15 17:30:00,56.9,47.2,30.05,South,175,15.0,16.0,70,0.00,,,0.00,VWS V14.01,2013-04-15 21:30:00,
2013-04-15 17:33:00,57.3,47.6,30.04,SE,124,16.0,16.0,70,0.00,,OVC031,0.00,VWS V14.01,2013-04-15 21:33:00,
2013-04-15 17:38:00,56.9,46.8,30.05,SE,132,7.0,15.0,69,0.00,,OVC031,0.00,VWS V14.01,2013-04-15 21:38:00,
2013-04-15 17:40:00,56.8,47.5,30.05,South,176,10.0,16.0,71,0.00,,,0.00,VWS V14.01,2013-04-15 21:40:00,
2013-04-15 17:43:00,56.8,47.1,30.05,South,182,3.0,16.0,70,0.00,,OVC031,0.00,VWS V14.01,2013-04-15 21:43:00,
2013-04-15 17:48:00,56.8,47.5,30.05,SSE,168,3.0,10.0,71,0.00,,OVC031,0.00,VWS V14.01,2013-04-15 21:48:00,
2013-04-15 17:50:00,57.2,47.5,30.05,SSE,163,8.0,13.0,70,0.00,,,0.00,VWS V14.01,2013-04-15 21:50:00,
2013-04-15 17:53:00,57.0,47.7,30.05,South,190,9.0,11.0,71,0.00,,OVC031,0.00,VWS V14.01,2013-04-15 21:53:00,
2013-04-15 17:58:00,57.2,47.5,30.05,ESE,123,1.0,10.0,70,0.00,,OVC031,0.00,VWS V14.01,2013-04-15 21:58:00,
2013-04-15 18:00:00,57.3,47.6,30.05,SE,139,7.0,15.0,70,0.00,,,0.00,VWS V14.01,2013-04-15 22:00:00,
2013-04-15 18:03:00,57.3,47.6,30.05,South,169,6.0,14.0,70,0.00,,OVC033,0.00,VWS V14.01,2013-04-15 22:03:00,
2013-04-15 18:08:00,57.2,47.5,30.05,SE,140,2.0,13.0,70,0.00,,OVC033,0.00,VWS V14.01,2013-04-15 22:08:00,
2013-04-15 18:10:00,57.1,47.0,30.05,SSE,160,9.0,15.0,69,0.00,,,0.00,VWS V14.01,2013-04-15 22:10:00,
2013-04-15 18:13:00,57.2,47.5,30.05,SSE,157,3.0,13.0,70,0.00,,OVC033,0.00,VWS V14.01,2013-04-15 22:13:00,
2013-04-15 18:18:00,57.1,47.4,30.05,SSE,158,1.0,9.0,70,0.00,,OVC033,0.00,VWS V14.01,2013-04-15 22:18:00,
2013-04-15 18:20:00,57.2,47.5,30.05,SSW,198,10.0,13.0,70,0.00,,,0.00,VWS V14.01,2013-04-15 22:20:00,
2013-04-15 18:23:00,57.3,47.6,30.05,South,169,7.0,9.0,70,0.00,,OVC033,0.00,VWS V14.01,2013-04-15 22:23:00,
2013-04-15 18:28:00,57.1,47.0,30.05,South,175,4.0,14.0,69,0.00,,OVC033,0.00,VWS V14.01,2013-04-15 22:28:00,
2013-04-15 18:30:00,57.0,46.9,30.05,SE,142,5.0,14.0,69,0.00,,,0.00,VWS V14.01,2013-04-15 22:30:00,
2013-04-15 18:33:00,57.0,47.3,30.05,SSE,159,5.0,14.0,70,0.00,,OVC033,0.00,VWS V14.01,2013-04-15 22:33:00,
2013-04-15 18:38:00,57.0,47.3,30.05,SSE,165,7.0,11.0,70,0.00,,OVC033,0.00,VWS V14.01,2013-04-15 22:38:00,
2013-04-15 18:40:00,56.8,46.8,30.05,SSE,150,4.0,16.0,69,0.00,,,0.00,VWS V14.01,2013-04-15 22:40:00,
2013-04-15 18:43:00,57.0,47.3,30.05,SE,139,4.0,11.0,70,0.00,,OVC033,0.00,VWS V14.01,2013-04-15 22:43:00,
2013-04-15 18:48:00,56.8,46.8,30.05,ESE,113,5.0,9.0,69,0.00,,OVC033,0.00,VWS V14.01,2013-04-15 22:48:00,
2013-04-15 18:50:00,56.7,47.0,30.05,SSE,159,7.0,13.0,70,0.00,,,0.00,VWS V14.01,2013-04-15 22:50:00,
2013-04-15 18:53:00,56.8,47.1,30.05,ESE,123,2.0,13.0,70,0.00,,OVC033,0.00,VWS V14.01,2013-04-15 22:53:00,
2013-04-15 18:58:00,56.7,47.0,30.05,SSE,167,6.0,7.0,70,0.00,,OVC033,0.00,VWS V14.01,2013-04-15 22:58:00,
2013-04-15 19:00:00,56.5,46.8,30.05,South,171,4.0,18.0,70,0.00,,,0.00,VWS V14.01,2013-04-15 23:00:00,
2013-04-15 19:03:00,56.6,46.9,30.05,South,177,0.0,18.0,70,0.00,,OVC049,0.00,VWS V14.01,2013-04-15 23:03:00,
2013-04-15 19:08:00,56.5,46.8,30.05,SE,131,1.0,4.0,70,0.00,,OVC049,0.00,VWS V14.01,2013-04-15 23:08:00,
2013-04-15 19:10:00,56.7,47.0,30.05,SSE,163,0.0,14.0,70,0.00,,,0.00,VWS V14.01,2013-04-15 23:10:00,
2013-04-15 19:13:00,56.5,47.2,30.05,South,180,10.0,10.0,71,0.00,,OVC049,0.00,VWS V14.01,2013-04-15 23:13:00,
2013-04-15 19:18:00,56.7,47.0,30.05,South,173,3.0,4.0,70,0.00,,OVC049,0.00,VWS V14.01,2013-04-15 23:18:00,
2013-04-15 19:20:00,56.6,46.9,30.05,SE,146,8.0,13.0,70,0.00,,,0.00,VWS V14.01,2013-04-15 23:20:00,
2013-04-15 19:23:00,56.6,46.9,30.05,SSW,195,7.0,12.0,70,0.00,,OVC049,0.00,VWS V14.01,2013-04-15 23:23:00,
2013-04-15 19:28:00,56.6,46.6,30.05,SSE,157,3.0,13.0,69,0.00,,OVC049,0.00,VWS V14.01,2013-04-15 23:28:00,
2013-04-15 19:30:00,56.4,46.4,30.05,SE,140,7.0,14.0,69,0.00,,,0.00,VWS V14.01,2013-04-15 23:30:00,
2013-04-15 19:33:00,56.5,46.5,30.05,South,171,3.0,13.0,69,0.00,,OVC049,0.00,VWS V14.01,2013-04-15 23:33:00,
2013-04-15 19:38:00,56.4,46.4,30.05,SSE,149,7.0,9.0,69,0.00,,OVC049,0.00,VWS V14.01,2013-04-15 23:38:00,
2013-04-15 19:40:00,56.3,46.3,30.05,ESE,119,6.0,21.0,69,0.00,,,0.00,VWS V14.01,2013-04-15 23:40:00,
2013-04-15 19:43:00,56.4,46.4,30.05,East,101,2.0,14.0,69,0.00,,OVC049,0.00,VWS V14.01,2013-04-15 23:43:00,
2013-04-15 19:48:00,56.4,46.4,30.05,SSE,149,7.0,7.0,69,0.00,,OVC049,0.00,VWS V14.01,2013-04-15 23:48:00,
2013-04-15 19:50:00,56.1,46.5,30.05,South,169,2.0,12.0,70,0.00,,,0.00,VWS V14.01,2013-04-15 23:50:00,
2013-04-15 19:53:00,56.1,46.5,30.05,ESE,121,7.0,10.0,70,0.00,,OVC049,0.00,VWS V14.01,2013-04-15 23:53:00,
2013-04-15 19:58:00,56.1,46.5,30.05,SSE,152,4.0,5.0,70,0.00,,OVC049,0.00,VWS V14.01,2013-04-15 23:58:00,
2013-04-15 20:00:00,55.9,46.3,30.05,SSE,168,4.0,13.0,70,0.00,,,0.00,VWS V14.01,2013-04-16 00:00:00,
2013-04-15 20:03:00,55.8,46.2,30.05,South,176,10.0,13.0,70,0.00,,OVC055,0.00,VWS V14.01,2013-04-16 00:03:00,
2013-04-15 20:08:00,55.8,46.2,30.05,SSE,165,8.0,9.0,70,0.00,,OVC055,0.00,VWS V14.01,2013-04-16 00:08:00,
2013-04-15 20:10:00,55.9,46.3,30.05,SSE,150,3.0,12.0,70,0.00,,,0.00,VWS V14.01,2013-04-16 00:10:00,
2013-04-15 20:13:00,55.8,46.2,30.05,South,175,2.0,11.0,70,0.00,,OVC055,0.00,VWS V14.01,2013-04-16 00:13:00,
2013-04-15 20:18:00,55.9,46.3,30.05,SSE,167,3.0,6.0,70,0.00,,OVC055,0.00,VWS V14.01,2013-04-16 00:18:00,
2013-04-15 20:20:00,55.3,46.1,30.05,ESE,121,1.0,11.0,71,0.00,,,0.00,VWS V14.01,2013-04-16 00:20:00,
2013-04-15 20:23:00,55.6,46.0,30.05,SSW,194,7.0,11.0,70,0.00,,OVC055,0.00,VWS V14.01,2013-04-16 00:23:00,
2013-04-15 20:28:00,55.3,46.1,30.05,SSE,161,3.0,6.0,71,0.00,,OVC055,0.00,VWS V14.01,2013-04-16 00:28:00,
2013-04-15 20:30:00,55.1,46.2,30.06,South,173,2.0,11.0,72,0.00,,,0.00,VWS V14.01,2013-04-16 00:30:00,
2013-04-15 20:33:00,54.9,46.1,30.05,SE,127,5.0,7.0,72,0.00,,OVC055,0.00,VWS V14.01,2013-04-16 00:33:00,
2013-04-15 20:38:00,55.0,46.2,30.06,SSE,155,2.0,3.0,72,0.00,,OVC055,0.00,VWS V14.01,2013-04-16 00:38:00,
2013-04-15 20:40:00,55.2,46.0,30.06,SSE,159,4.0,12.0,71,0.00,,,0.00,VWS V14.01,2013-04-16 00:40:00,
2013-04-15 20:43:00,55.2,46.0,30.06,ESE,105,2.0,12.0,71,0.00,,OVC055,0.00,VWS V14.01,2013-04-16 00:43:00,
2013-04-15 20:48:00,55.2,46.0,30.06,SSW,200,3.0,6.0,71,0.00,,OVC055,0.00,VWS V14.01,2013-04-16 00:48:00,
2013-04-15 20:50:00,55.0,46.2,30.06,SE,141,1.0,6.0,72,0.00,,,0.00,VWS V14.01,2013-04-16 00:50:00,
2013-04-15 20:53:00,55.1,46.2,30.06,SSE,152,3.0,6.0,72,0.00,,OVC055,0.00,VWS V14.01,2013-04-16 00:53:00,
2013-04-15 20:58:00,55.1,46.2,30.06,SSE,160,3.0,5.0,72,0.00,,OVC055,0.00,VWS V14.01,2013-04-16 00:58:00,
2013-04-15 21:00:00,55.3,46.4,30.07,SE,142,0.0,11.0,72,0.00,,,0.00,VWS V14.01,2013-04-16 01:00:00,
2013-04-15 21:03:00,55.3,46.1,30.06,ESE,114,2.0,11.0,71,0.00,,OVC055,0.00,VWS V14.01,2013-04-16 01:03:00,
2013-04-15 21:08:00,55.3,46.4,30.07,SE,127,1.0,4.0,72,0.00,,OVC055,0.00,VWS V14.01,2013-04-16 01:08:00,
2013-04-15 21:10:00,55.3,46.4,30.07,SE,140,7.0,12.0,72,0.00,,,0.00,VWS V14.01,2013-04-16 01:10:00,
2013-04-15 21:14:00,55.3,46.4,30.07,SE,129,4.0,12.0,72,0.00,,OVC055,0.00,VWS V14.01,2013-04-16 01:14:00,
2013-04-15 21:19:00,55.3,46.4,30.07,ESE,123,2.0,7.0,72,0.00,,OVC055,0.00,VWS V14.01,2013-04-16 01:19:00,
2013-04-15 21:20:00,55.3,46.8,30.07,SSE,157,0.0,9.0,73,0.00,,,0.00,VWS V14.01,2013-04-16 01:20:00,
2013-04-15 21:24:00,55.3,46.4,30.07,ESE,117,1.0,9.0,72,0.00,,OVC055,0.00,VWS V14.01,2013-04-16 01:24:00,
2013-04-15 21:29:00,55.2,46.7,30.07,SSE,168,3.0,9.0,73,0.00,,OVC055,0.00,VWS V14.01,2013-04-16 01:29:00,
2013-04-15 21:30:00,55.1,46.6,30.07,SE,140,5.0,10.0,73,0.00,,,0.00,VWS V14.01,2013-04-16 01:30:00,
2013-04-15 21:34:00,55.2,46.7,30.07,SE,132,4.0,10.0,73,0.00,,OVC055,0.00,VWS V14.01,2013-04-16 01:34:00,
2013-04-15 21:39:00,55.1,46.6,30.07,SSE,157,3.0,7.0,73,0.00,,OVC055,0.00,VWS V14.01,2013-04-16 01:39:00,
2013-04-15 21:40:00,54.9,47.1,30.07,SE,130,6.0,13.0,75,0.00,,,0.00,VWS V14.01,2013-04-16 01:40:00,
2013-04-15 21:44:00,55.0,46.9,30.07,SE,136,3.0,13.0,74,0.00,,OVC055,0.00,VWS V14.01,2013-04-16 01:44:00,
2013-04-15 21:49:00,54.8,47.0,30.07,ESE,118,2.0,7.0,75,0.00,,OVC055,0.00,VWS V14.01,2013-04-16 01:49:00,
2013-04-15 21:50:00,54.7,47.3,30.07,SE,142,7.0,15.0,76,0.00,,,0.00,VWS V14.01,2013-04-16 01:50:00,
2013-04-15 21:54:00,54.7,47.3,30.07,SSE,163,6.0,15.0,76,0.00,,OVC055,0.00,VWS V14.01,2013-04-16 01:54:00,
2013-04-15 21:59:00,54.7,47.3,30.07,South,177,3.0,11.0,76,0.00,,OVC055,0.00,VWS V14.01,2013-04-16 01:59:00,
2013-04-15 22:00:00,54.5,47.5,30.07,SE,133,5.0,11.0,77,0.00,,,0.00,VWS V14.01,2013-04-16 02:00:00,
2013-04-15 22:04:00,54.6,47.5,30.07,SE,136,3.0,11.0,77,0.00,,OVC060,0.00,VWS V14.01,2013-04-16 02:04:00,
2013-04-15 22:09:00,54.5,47.5,30.07,SSE,153,0.0,11.0,77,0.00,,OVC060,0.00,VWS V14.01,2013-04-16 02:09:00,
2013-04-15 22:10:00,54.3,47.6,30.07,SSE,162,0.0,11.0,78,0.00,,,0.00,VWS V14.01,2013-04-16 02:10:00,
2013-04-15 22:14:00,54.4,47.3,30.07,SE,144,1.0,11.0,77,0.00,,OVC060,0.00,VWS V14.01,2013-04-16 02:14:00,
2013-04-15 22:19:00,54.2,47.5,30.07,SE,144,1.0,11.0,78,0.00,,OVC060,0.00,VWS V14.01,2013-04-16 02:19:00,
2013-04-15 22:20:00,54.4,47.3,30.07,SE,141,0.0,18.0,77,0.00,,,0.00,VWS V14.01,2013-04-16 02:20:00,
2013-04-15 22:24:00,54.3,47.6,30.07,SSE,150,5.0,18.0,78,0.00,,OVC060,0.00,VWS V14.01,2013-04-16 02:24:00,
2013-04-15 22:29:00,54.4,47.7,30.07,South,182,2.0,4.0,78,0.00,,OVC060,0.00,VWS V14.01,2013-04-16 02:29:00,
2013-04-15 22:30:00,54.2,47.5,30.08,SE,135,4.0,13.0,78,0.00,,,0.00,VWS V14.01,2013-04-16 02:30:00,
2013-04-15 22:34:00,54.2,47.5,30.07,SSW,199,0.0,7.0,78,0.00,,OVC060,0.00,VWS V14.01,2013-04-16 02:34:00,
2013-04-15 22:39:00,54.2,47.5,30.08,SSE,154,2.0,5.0,78,0.00,,OVC060,0.00,VWS V14.01,2013-04-16 02:39:00,
2013-04-15 22:40:00,54.2,47.5,30.08,ESE,117,2.0,11.0,78,0.00,,,0.00,VWS V14.01,2013-04-16 02:40:00,
2013-04-15 22:44:00,54.2,47.5,30.08,SE,146,6.0,11.0,78,0.00,,OVC060,0.00,VWS V14.01,2013-04-16 02:44:00,
2013-04-15 22:49:00,54.2,47.5,30.08,SE,146,4.0,9.0,78,0.00,,OVC060,0.00,VWS V14.01,2013-04-16 02:49:00,
2013-04-15 22:50:00,54.0,47.3,30.08,SSE,162,5.0,11.0,78,0.00,,,0.00,VWS V14.01,2013-04-16 02:50:00,
2013-04-15 22:54:00,54.1,47.4,30.08,SSE,167,3.0,11.0,78,0.00,,OVC060,0.00,VWS V14.01,2013-04-16 02:54:00,
2013-04-15 22:59:00,54.1,47.4,30.08,SSE,157,5.0,15.0,78,0.00,,OVC060,0.00,VWS V14.01,2013-04-16 02:59:00,
2013-04-15 23:00:00,53.9,47.5,30.07,SSE,165,3.0,15.0,79,0.00,,,0.00,VWS V14.01,2013-04-16 03:00:00,
2013-04-15 23:04:00,54.0,47.6,30.08,SSE,147,3.0,15.0,79,0.00,,OVC060,0.00,VWS V14.01,2013-04-16 03:04:00,
2013-04-15 23:09:00,53.9,47.5,30.07,SSE,152,9.0,18.0,79,0.00,,OVC060,0.00,VWS V14.01,2013-04-16 03:09:00,
2013-04-15 23:10:00,53.7,47.7,30.07,SSE,164,3.0,18.0,80,0.00,,,0.00,VWS V14.01,2013-04-16 03:10:00,
2013-04-15 23:14:00,53.8,47.8,30.07,SE,136,3.0,18.0,80,0.00,,OVC060,0.00,VWS V14.01,2013-04-16 03:14:00,
2013-04-15 23:19:00,53.7,47.7,30.07,SSE,167,5.0,8.0,80,0.00,,OVC060,0.00,VWS V14.01,2013-04-16 03:19:00,
2013-04-15 23:20:00,53.7,47.7,30.07,SE,130,2.0,13.0,80,0.00,,,0.00,VWS V14.01,2013-04-16 03:20:00,
2013-04-15 23:24:00,53.7,47.7,30.07,SE,124,4.0,13.0,80,0.00,,OVC060,0.00,VWS V14.01,2013-04-16 03:24:00,
2013-04-15 23:29:00,53.6,47.9,30.07,SE,144,4.0,10.0,81,0.00,,OVC060,0.00,VWS V14.01,2013-04-16 03:29:00,
2013-04-15 23:30:00,53.5,47.8,30.07,SE,134,2.0,13.0,81,0.00,,,0.00,VWS V14.01,2013-04-16 03:30:00,
2013-04-15 23:34:00,53.5,47.8,30.07,ESE,119,9.0,10.0,81,0.00,,OVC060,0.00,VWS V14.01,2013-04-16 03:34:00,
2013-04-15 23:39:00,53.5,47.8,30.07,SE,141,9.0,13.0,81,0.00,,OVC060,0.00,VWS V14.01,2013-04-16 03:39:00,
2013-04-15 23:40:00,53.5,47.8,30.07,SE,135,6.0,14.0,81,0.00,,,0.00,VWS V14.01,2013-04-16 03:40:00,
2013-04-15 23:44:00,53.5,47.8,30.07,SSW,201,6.0,14.0,81,0.00,,OVC060,0.00,VWS V14.01,2013-04-16 03:44:00,
2013-04-15 23:49:00,53.5,47.8,30.07,SSE,156,3.0,7.0,81,0.00,,OVC060,0.00,VWS V14.01,2013-04-16 03:49:00,
2013-04-15 23:50:00,53.4,48.0,30.08,SSE,155,3.0,13.0,82,0.00,,,0.00,VWS V14.01,2013-04-16 03:50:00,
2013-04-15 23:54:00,53.4,48.0,30.08,SE,146,7.0,13.0,82,0.00,,OVC060,0.00,VWS V14.01,2013-04-16 03:54:00,
2013-04-15 23:59:00,53.4,48.0,30.08,ESE,107,3.0,8.0,82,0.00,,OVC060,0.00,VWS V14.01,2013-04-16 03:59:00,